Time,TemperatureF,DewpointF,PressureIn,WindDirection,WindDirectionDegrees,WindSpeedMPH,WindSpeedGustMPH,Humidity,HourlyPrecipIn,Conditions,Clouds,dailyrainin,SoftwareType,DateUTC
2013-09-08 00:01:00,76.1,73.0,29.96,NNE,30,0.0,0.0,90,0.00,,,0.00,Wunderground v.1.15,2013-09-08 04:01:00,
2013-09-08 00:02:00,76.1,73.0,29.96,NNE,30,0.0,0.0,90,0.00,,,0.00,Wunderground v.1.15,2013-09-08 04:02:00,
2013-09-08 00:03:00,76.0,72.9,29.96,NNE,30,0.0,0.0,90,0.00,,,0.00,Wunderground v.1.15,2013-09-08 04:03:00,
2013-09-08 00:04:00,76.0,72.9,29.96,NNE,30,0.0,0.0,90,0.00,,,0.00,Wunderground v.1.15,2013-09-08 04:04:00,
2013-09-08 00:08:00,76.0,72.9,29.95,NNE,30,0.0,0.0,90,0.00,,,0.00,Wunderground v.1.15,2013-09-08 04:08:00,
2013-09-08 00:11:00,76.0,72.9,29.95,NNE,30,0.0,0.0,90,0.00,,,0.00,Wunderground v.1.15,2013-09-08 04:11:00,
2013-09-08 00:16:00,75.9,72.4,29.95,NNE,32,0.0,0.0,89,0.00,,,0.00,Wunderground v.1.15,2013-09-08 04:16:00,
2013-09-08 00:22:00,75.9,72.4,29.95,NE,41,0.0,0.0,89,0.00,,,0.00,Wunderground v.1.15,2013-09-08 04:22:00,
2013-09-08 00:28:00,75.9,72.1,29.94,NNE,30,0.0,0.0,88,0.00,,,0.00,Wunderground v.1.15,2013-09-08 04:28:00,
2013-09-08 00:33:00,75.8,72.0,29.94,NNE,30,0.0,0.0,88,0.00,,,0.00,Wunderground v.1.15,2013-09-08 04:33:00,
2013-09-08 00:39:00,75.7,71.9,29.94,NNE,30,0.0,0.0,88,0.00,,,0.00,Wunderground v.1.15,2013-09-08 04:39:00,
2013-09-08 00:45:00,75.6,71.8,29.94,NNE,30,0.0,0.0,88,0.00,,,0.00,Wunderground v.1.15,2013-09-08 04:45:00,
2013-09-08 00:51:00,75.5,72.0,29.94,ENE,77,0.0,0.0,89,0.00,,,0.00,Wunderground v.1.15,2013-09-08 04:51:00,
2013-09-08 00:57:00,75.5,72.0,29.94,NE,55,0.0,0.0,89,0.00,,,0.00,Wunderground v.1.15,2013-09-08 04:57:00,
2013-09-08 01:02:00,75.6,72.1,29.94,NE,55,0.0,0.0,89,0.00,,,0.00,Wunderground v.1.15,2013-09-08 05:02:00,
2013-09-08 01:08:00,75.6,72.1,29.94,NE,55,0.0,0.0,89,0.00,,,0.00,Wunderground v.1.15,2013-09-08 05:08:00,
2013-09-08 01:14:00,75.5,72.0,29.94,NE,55,0.0,0.0,89,0.00,,,0.00,Wunderground v.1.15,2013-09-08 05:14:00,
2013-09-08 01:19:00,75.4,71.9,29.94,NE,52,0.0,0.0,89,0.00,,,0.00,Wunderground v.1.15,2013-09-08 05:19:00,
2013-09-08 01:25:00,75.4,71.9,29.95,NE,52,0.0,0.0,89,0.00,,,0.00,Wunderground v.1.15,2013-09-08 05:25:00,
2013-09-08 01:31:00,75.4,71.9,29.95,NE,54,0.0,0.0,89,0.00,,,0.00,Wunderground v.1.15,2013-09-08 05:31:00,
2013-09-08 01:37:00,75.3,71.8,29.95,NE,53,0.0,0.0,89,0.00,,,0.00,Wunderground v.1.15,2013-09-08 05:37:00,
2013-09-08 01:43:00,75.2,71.7,29.95,NE,54,0.0,0.0,89,0.00,,,0.00,Wunderground v.1.15,2013-09-08 05:43:00,
2013-09-08 01:48:00,75.1,71.6,29.95,NE,54,0.0,0.0,89,0.00,,,0.00,Wunderground v.1.15,2013-09-08 05:48:00,
2013-09-08 01:53:00,75.2,71.7,29.95,NE,37,0.0,0.0,89,0.00,,,0.00,Wunderground v.1.15,2013-09-08 05:53:00,
2013-09-08 01:59:00,75.2,71.7,29.95,NE,39,0.0,0.0,89,0.00,,,0.00,Wunderground v.1.15,2013-09-08 05:59:00,
2013-09-08 02:04:00,75.3,71.8,29.94,NE,40,0.0,0.0,89,0.00,,,0.00,Wunderground v.1.15,2013-09-08 06:04:00,
2013-09-08 02:09:00,75.4,71.9,29.94,NNE,18,0.0,1.0,89,0.00,,,0.00,Wunderground v.1.15,2013-09-08 06:09:00,
2013-09-08 02:14:00,75.5,72.0,29.94,NE,54,0.0,1.0,89,0.00,,,0.00,Wunderground v.1.15,2013-09-08 06:14:00,
2013-09-08 02:19:00,75.5,72.0,29.94,NE,54,0.0,1.0,89,0.00,,,0.00,Wunderground v.1.15,2013-09-08 06:19:00,
2013-09-08 02:24:00,75.6,72.1,29.94,East,82,0.0,1.0,89,0.00,,,0.00,Wunderground v.1.15,2013-09-08 06:24:00,
2013-09-08 02:29:00,75.6,72.1,29.93,East,82,0.0,1.0,89,0.00,,,0.00,Wunderground v.1.15,2013-09-08 06:29:00,
2013-09-08 02:35:00,75.6,72.1,29.93,East,82,0.0,1.0,89,0.00,,,0.00,Wunderground v.1.15,2013-09-08 06:35:00,
2013-09-08 02:40:00,75.6,72.1,29.93,East,82,0.0,0.0,89,0.00,,,0.00,Wunderground v.1.15,2013-09-08 06:40:00,
2013-09-08 02:45:00,75.5,72.4,29.93,East,82,0.0,0.0,90,0.00,,,0.00,Wunderground v.1.15,2013-09-08 06:45:00,
2013-09-08 02:50:00,75.4,72.3,29.93,East,82,0.0,0.0,90,0.00,,,0.00,Wunderground v.1.15,2013-09-08 06:50:00,
2013-09-08 02:55:00,75.3,72.2,29.93,East,82,0.0,0.0,90,0.00,,,0.00,Wunderground v.1.15,2013-09-08 06:55:00,
2013-09-08 03:00:00,75.3,72.2,29.93,East,82,0.0,0.0,90,0.00,,,0.00,Wunderground v.1.15,2013-09-08 07:00:00,
2013-09-08 03:05:00,75.3,72.5,29.92,NE,37,0.0,2.0,91,0.00,,,0.00,Wunderground v.1.15,2013-09-08 07:05:00,
2013-09-08 03:10:00,75.3,72.5,29.92,NE,37,0.0,0.0,91,0.00,,,0.00,Wunderground v.1.15,2013-09-08 07:10:00,
2013-09-08 03:15:00,75.3,72.5,29.92,NE,37,0.0,0.0,91,0.00,,,0.00,Wunderground v.1.15,2013-09-08 07:15:00,
2013-09-08 03:20:00,75.2,72.4,29.92,NE,37,0.0,0.0,91,0.00,,,0.00,Wunderground v.1.15,2013-09-08 07:20:00,
2013-09-08 03:25:00,75.1,72.3,29.92,NE,37,0.0,1.0,91,0.00,,,0.00,Wunderground v.1.15,2013-09-08 07:25:00,
2013-09-08 03:30:00,75.1,72.3,29.91,NE,37,0.0,0.0,91,0.00,,,0.00,Wunderground v.1.15,2013-09-08 07:30:00,
2013-09-08 03:35:00,74.9,72.1,29.91,NE,37,0.0,0.0,91,0.00,,,0.00,Wunderground v.1.15,2013-09-08 07:35:00,
2013-09-08 03:40:00,74.9,72.4,29.91,NE,37,0.0,0.0,92,0.00,,,0.00,Wunderground v.1.15,2013-09-08 07:40:00,
2013-09-08 03:45:00,74.8,72.3,29.91,NNE,31,0.0,0.0,92,0.00,,,0.00,Wunderground v.1.15,2013-09-08 07:45:00,
2013-09-08 03:50:00,74.9,72.4,29.91,NNE,32,0.0,0.0,92,0.00,,,0.00,Wunderground v.1.15,2013-09-08 07:50:00,
2013-09-08 03:55:00,74.8,72.3,29.91,NNE,31,0.0,0.0,92,0.00,,,0.00,Wunderground v.1.15,2013-09-08 07:55:00,
2013-09-08 04:00:00,74.8,72.3,29.91,NNE,32,0.0,0.0,92,0.00,,,0.00,Wunderground v.1.15,2013-09-08 08:00:00,
2013-09-08 04:05:00,74.8,72.3,29.91,NNE,32,0.0,0.0,92,0.00,,,0.00,Wunderground v.1.15,2013-09-08 08:05:00,
2013-09-08 04:10:00,74.7,72.5,29.91,NNE,32,0.0,0.0,93,0.00,,,0.00,Wunderground v.1.15,2013-09-08 08:10:00,
2013-09-08 04:15:00,74.6,72.4,29.91,NNE,32,0.0,0.0,93,0.00,,,0.00,Wunderground v.1.15,2013-09-08 08:15:00,
2013-09-08 04:20:00,74.6,72.4,29.91,NNE,32,0.0,0.0,93,0.00,,,0.00,Wunderground v.1.15,2013-09-08 08:20:00,
2013-09-08 04:25:00,74.7,72.5,29.91,NNE,32,0.0,0.0,93,0.00,,,0.00,Wunderground v.1.15,2013-09-08 08:25:00,
2013-09-08 04:30:00,74.7,72.5,29.91,NNE,16,0.0,0.0,93,0.00,,,0.00,Wunderground v.1.15,2013-09-08 08:30:00,
2013-09-08 04:35:00,74.7,72.5,29.91,NNE,16,0.0,0.0,93,0.00,,,0.00,Wunderground v.1.15,2013-09-08 08:35:00,
2013-09-08 04:40:00,74.7,72.5,29.91,NNE,16,0.0,0.0,93,0.00,,,0.00,Wunderground v.1.15,2013-09-08 08:40:00,
2013-09-08 04:45:00,74.7,72.5,29.91,NE,37,0.0,1.0,93,0.00,,,0.00,Wunderground v.1.15,2013-09-08 08:45:00,
2013-09-08 04:51:00,74.8,72.6,29.91,NE,37,0.0,0.0,93,0.00,,,0.00,Wunderground v.1.15,2013-09-08 08:51:00,
2013-09-08 04:56:00,74.7,72.5,29.91,NE,37,0.0,0.0,93,0.00,,,0.00,Wunderground v.1.15,2013-09-08 08:56:00,
2013-09-08 05:01:00,74.6,72.4,29.91,NE,37,0.0,0.0,93,0.00,,,0.00,Wunderground v.1.15,2013-09-08 09:01:00,
2013-09-08 05:06:00,74.6,72.4,29.91,NE,37,0.0,0.0,93,0.00,,,0.00,Wunderground v.1.15,2013-09-08 09:06:00,
2013-09-08 05:11:00,74.5,72.3,29.91,NE,37,0.0,0.0,93,0.00,,,0.00,Wunderground v.1.15,2013-09-08 09:11:00,
2013-09-08 05:16:00,74.4,72.2,29.91,NE,37,0.0,0.0,93,0.00,,,0.00,Wunderground v.1.15,2013-09-08 09:16:00,
2013-09-08 05:21:00,74.4,72.2,29.91,NE,37,0.0,0.0,93,0.00,,,0.00,Wunderground v.1.15,2013-09-08 09:21:00,
2013-09-08 05:26:00,74.3,72.5,29.91,NE,37,0.0,0.0,94,0.00,,,0.00,Wunderground v.1.15,2013-09-08 09:26:00,
2013-09-08 05:31:00,74.4,72.6,29.91,NE,37,0.0,0.0,94,0.00,,,0.00,Wunderground v.1.15,2013-09-08 09:31:00,
2013-09-08 05:37:00,74.3,72.5,29.91,NW,315,0.0,0.0,94,0.00,,,0.00,Wunderground v.1.15,2013-09-08 09:37:00,
2013-09-08 05:42:00,74.3,72.5,29.91,NW,311,0.0,0.0,94,0.00,,,0.00,Wunderground v.1.15,2013-09-08 09:42:00,
2013-09-08 05:47:00,74.3,72.5,29.91,NW,312,0.0,0.0,94,0.00,,,0.00,Wunderground v.1.15,2013-09-08 09:47:00,
2013-09-08 05:52:00,74.3,72.5,29.91,NW,312,0.0,0.0,94,0.00,,,0.00,Wunderground v.1.15,2013-09-08 09:52:00,
2013-09-08 05:57:00,74.2,72.4,29.92,NW,312,0.0,0.0,94,0.00,,,0.00,Wunderground v.1.15,2013-09-08 09:57:00,
2013-09-08 06:02:00,74.3,72.8,29.92,NNW,339,0.0,0.0,95,0.00,,,0.00,Wunderground v.1.15,2013-09-08 10:02:00,
2013-09-08 06:07:00,74.2,72.4,29.92,NNW,338,0.0,0.0,94,0.00,,,0.00,Wunderground v.1.15,2013-09-08 10:07:00,
2013-09-08 06:12:00,74.1,72.3,29.92,NNW,338,0.0,0.0,94,0.00,,,0.00,Wunderground v.1.15,2013-09-08 10:12:00,
2013-09-08 06:17:00,74.0,72.5,29.92,NNW,338,0.0,0.0,95,0.00,,,0.00,Wunderground v.1.15,2013-09-08 10:17:00,
2013-09-08 06:22:00,74.0,72.5,29.92,NNW,338,0.0,0.0,95,0.00,,,0.00,Wunderground v.1.15,2013-09-08 10:22:00,
2013-09-08 06:27:00,74.0,72.5,29.92,North,356,0.0,0.0,95,0.00,,,0.00,Wunderground v.1.15,2013-09-08 10:27:00,
2013-09-08 06:32:00,74.0,72.5,29.92,North,355,0.0,0.0,95,0.00,,,0.00,Wunderground v.1.15,2013-09-08 10:32:00,
2013-09-08 06:37:00,74.1,72.6,29.92,North,356,0.0,0.0,95,0.00,,,0.00,Wunderground v.1.15,2013-09-08 10:37:00,
2013-09-08 06:42:00,74.0,72.5,29.92,North,355,0.0,0.0,95,0.00,,,0.00,Wunderground v.1.15,2013-09-08 10:42:00,
2013-09-08 06:47:00,73.9,72.4,29.92,North,355,0.0,0.0,95,0.00,,,0.00,Wunderground v.1.15,2013-09-08 10:47:00,
2013-09-08 06:52:00,73.9,72.4,29.92,North,356,0.0,0.0,95,0.00,,,0.00,Wunderground v.1.15,2013-09-08 10:52:00,
2013-09-08 06:57:00,73.9,72.4,29.93,North,356,0.0,0.0,95,0.00,,,0.00,Wunderground v.1.15,2013-09-08 10:57:00,
2013-09-08 07:02:00,73.8,72.3,29.93,North,355,0.0,0.0,95,0.00,,,0.00,Wunderground v.1.15,2013-09-08 11:02:00,
2013-09-08 07:07:00,73.9,72.4,29.93,North,357,0.0,0.0,95,0.00,,,0.00,Wunderground v.1.15,2013-09-08 11:07:00,
2013-09-08 07:12:00,73.9,72.4,29.93,North,357,0.0,0.0,95,0.00,,,0.00,Wunderground v.1.15,2013-09-08 11:12:00,
2013-09-08 07:17:00,73.9,72.7,29.93,North,360,0.0,0.0,96,0.00,,,0.00,Wunderground v.1.15,2013-09-08 11:17:00,
2013-09-08 07:22:00,74.1,72.9,29.93,North,360,0.0,0.0,96,0.00,,,0.00,Wunderground v.1.15,2013-09-08 11:22:00,
2013-09-08 07:27:00,74.6,73.4,29.93,North,360,0.0,0.0,96,0.00,,,0.00,Wunderground v.1.15,2013-09-08 11:27:00,
2013-09-08 07:32:00,75.3,74.1,29.93,North,360,0.0,0.0,96,0.00,,,0.00,Wunderground v.1.15,2013-09-08 11:32:00,
2013-09-08 07:37:00,75.7,74.5,29.93,North,360,0.0,0.0,96,0.00,,,0.00,Wunderground v.1.15,2013-09-08 11:37:00,
2013-09-08 07:42:00,76.3,74.8,29.93,North,359,0.0,0.0,95,0.00,,,0.00,Wunderground v.1.15,2013-09-08 11:42:00,
2013-09-08 07:47:00,76.7,75.2,29.94,ENE,63,0.0,0.0,95,0.00,,,0.00,Wunderground v.1.15,2013-09-08 11:47:00,
2013-09-08 07:52:00,77.1,75.2,29.94,NE,39,0.0,2.0,94,0.00,,,0.00,Wunderground v.1.15,2013-09-08 11:52:00,
2013-09-08 07:57:00,77.6,75.4,29.94,NNE,32,0.0,2.0,93,0.00,,,0.00,Wunderground v.1.15,2013-09-08 11:57:00,
2013-09-08 08:02:00,78.3,76.1,29.94,NNE,33,0.0,0.0,93,0.00,,,0.00,Wunderground v.1.15,2013-09-08 12:02:00,
2013-09-08 08:07:00,79.1,76.2,29.94,NNE,28,0.0,1.0,91,0.00,,,0.00,Wunderground v.1.15,2013-09-08 12:07:00,
2013-09-08 08:12:00,79.7,76.5,29.95,NNE,29,0.0,0.0,90,0.00,,,0.00,Wunderground v.1.15,2013-09-08 12:12:00,
2013-09-08 08:17:00,80.5,77.0,29.95,NNE,29,0.0,0.0,89,0.00,,,0.00,Wunderground v.1.15,2013-09-08 12:17:00,
2013-09-08 08:22:00,81.3,77.4,29.95,NNE,29,0.0,0.0,88,0.00,,,0.00,Wunderground v.1.15,2013-09-08 12:22:00,
2013-09-08 08:27:00,81.9,77.3,29.95,NNE,28,0.0,1.0,86,0.00,,,0.00,Wunderground v.1.15,2013-09-08 12:27:00,
2013-09-08 08:32:00,82.7,77.7,29.95,NNE,29,0.0,0.0,85,0.00,,,0.00,Wunderground v.1.15,2013-09-08 12:32:00,
2013-09-08 08:37:00,83.2,77.5,29.95,NNE,29,0.0,0.0,83,0.00,,,0.00,Wunderground v.1.15,2013-09-08 12:37:00,
2013-09-08 08:42:00,83.4,77.7,29.95,NNE,29,0.0,0.0,83,0.00,,,0.00,Wunderground v.1.15,2013-09-08 12:42:00,
2013-09-08 08:47:00,83.9,77.8,29.95,ENE,75,0.0,1.0,82,0.00,,,0.00,Wunderground v.1.15,2013-09-08 12:47:00,
2013-09-08 08:52:00,84.1,78.0,29.95,NE,56,0.0,1.0,82,0.00,,,0.00,Wunderground v.1.15,2013-09-08 12:52:00,
2013-09-08 08:57:00,84.3,77.8,29.95,NE,53,0.0,1.0,81,0.00,,,0.00,Wunderground v.1.15,2013-09-08 12:57:00,
2013-09-08 09:02:00,84.6,78.1,29.95,NE,51,0.0,1.0,81,0.00,,,0.00,Wunderground v.1.15,2013-09-08 13:02:00,
2013-09-08 09:07:00,84.8,77.9,29.95,ENE,60,0.0,1.0,80,0.00,,,0.00,Wunderground v.1.15,2013-09-08 13:07:00,
2013-09-08 09:12:00,84.8,76.8,29.95,East,79,0.0,2.0,77,0.00,,,0.00,Wunderground v.1.15,2013-09-08 13:12:00,
2013-09-08 09:17:00,84.5,76.9,29.95,NE,44,0.0,2.0,78,0.00,,,0.00,Wunderground v.1.15,2013-09-08 13:17:00,
2013-09-08 09:22:00,84.7,77.1,29.95,NE,47,0.0,1.0,78,0.00,,,0.00,Wunderground v.1.15,2013-09-08 13:22:00,
2013-09-08 09:27:00,85.0,77.8,29.95,North,1,0.0,1.0,79,0.00,,,0.00,Wunderground v.1.15,2013-09-08 13:27:00,
2013-09-08 09:32:00,85.1,77.1,29.95,NE,54,2.0,5.0,77,0.00,,,0.00,Wunderground v.1.15,2013-09-08 13:32:00,
2013-09-08 09:37:00,85.0,77.4,29.95,NNE,32,0.0,5.0,78,0.00,,,0.00,Wunderground v.1.15,2013-09-08 13:37:00,
2013-09-08 09:42:00,85.4,77.8,29.95,NNE,26,0.0,1.0,78,0.00,,,0.00,Wunderground v.1.15,2013-09-08 13:42:00,
2013-09-08 09:47:00,85.8,77.8,29.95,NE,53,0.0,1.0,77,0.00,,,0.00,Wunderground v.1.15,2013-09-08 13:47:00,
2013-09-08 09:52:00,86.0,77.9,29.95,NE,46,0.0,1.0,77,0.00,,,0.00,Wunderground v.1.15,2013-09-08 13:52:00,
2013-09-08 09:57:00,86.4,77.5,29.95,NW,304,0.0,1.0,75,0.00,,,0.00,Wunderground v.1.15,2013-09-08 13:57:00,
2013-09-08 10:02:00,86.2,77.7,29.95,WNW,282,0.0,1.0,76,0.00,,,0.00,Wunderground v.1.15,2013-09-08 14:02:00,
2013-09-08 10:08:00,86.2,77.7,29.95,NE,41,0.0,1.0,76,0.00,,,0.00,Wunderground v.1.15,2013-09-08 14:08:00,
2013-09-08 10:13:00,86.7,78.2,29.95,NE,53,0.0,1.0,76,0.00,,,0.00,Wunderground v.1.15,2013-09-08 14:13:00,
2013-09-08 10:18:00,87.2,77.5,29.95,North,354,0.0,1.0,73,0.00,,,0.00,Wunderground v.1.15,2013-09-08 14:18:00,
2013-09-08 10:23:00,87.2,77.5,29.95,NE,48,0.0,1.0,73,0.00,,,0.00,Wunderground v.1.15,2013-09-08 14:23:00,
2013-09-08 10:28:00,87.7,78.0,29.95,NNW,337,0.0,1.0,73,0.00,,,0.00,Wunderground v.1.15,2013-09-08 14:28:00,
2013-09-08 10:33:00,87.7,76.7,29.95,North,11,0.0,1.0,70,0.00,,,0.00,Wunderground v.1.15,2013-09-08 14:33:00,
2013-09-08 10:38:00,88.2,77.6,29.95,ENE,74,0.0,1.0,71,0.00,,,0.00,Wunderground v.1.15,2013-09-08 14:38:00,
2013-09-08 10:43:00,88.4,76.9,29.95,ENE,78,0.0,3.0,69,0.00,,,0.00,Wunderground v.1.15,2013-09-08 14:43:00,
2013-09-08 10:48:00,88.8,77.3,29.95,NNW,344,0.0,3.0,69,0.00,,,0.00,Wunderground v.1.15,2013-09-08 14:48:00,
2013-09-08 10:53:00,89.6,77.2,29.95,ENE,71,0.0,1.0,67,0.00,,,0.00,Wunderground v.1.15,2013-09-08 14:53:00,
2013-09-08 10:58:00,89.4,76.5,29.95,East,87,0.0,2.0,66,0.00,,,0.00,Wunderground v.1.15,2013-09-08 14:58:00,
2013-09-08 11:04:00,88.6,75.8,29.95,NE,40,0.0,3.0,66,0.00,,,0.00,Wunderground v.1.15,2013-09-08 15:04:00,
2013-09-08 11:09:00,88.1,76.2,29.95,ENE,78,0.0,3.0,68,0.00,,,0.00,Wunderground v.1.15,2013-09-08 15:09:00,
2013-09-08 11:14:00,87.9,75.1,29.94,West,277,0.0,0.0,66,0.00,,,0.00,Wunderground v.1.15,2013-09-08 15:14:00,
2013-09-08 11:19:00,87.8,76.4,29.94,NNE,16,1.0,1.0,69,0.00,,,0.00,Wunderground v.1.15,2013-09-08 15:19:00,
2013-09-08 11:24:00,88.3,76.4,29.94,East,80,0.0,1.0,68,0.00,,,0.00,Wunderground v.1.15,2013-09-08 15:24:00,
2013-09-08 11:29:00,88.8,76.0,29.94,NW,311,0.0,1.0,66,0.00,,,0.00,Wunderground v.1.15,2013-09-08 15:29:00,
2013-09-08 11:34:00,88.7,76.8,29.94,ENE,60,0.0,0.0,68,0.00,,,0.00,Wunderground v.1.15,2013-09-08 15:34:00,
2013-09-08 11:39:00,88.6,76.7,29.94,North,8,0.0,0.0,68,0.00,,,0.00,Wunderground v.1.15,2013-09-08 15:39:00,
2013-09-08 11:44:00,88.6,76.7,29.94,NNE,31,0.0,1.0,68,0.00,,,0.00,Wunderground v.1.15,2013-09-08 15:44:00,
2013-09-08 11:49:00,88.5,76.1,29.94,NNE,31,0.0,1.0,67,0.00,,,0.00,Wunderground v.1.15,2013-09-08 15:49:00,
2013-09-08 11:54:00,88.1,75.3,29.94,NNE,29,0.0,1.0,66,0.00,,,0.00,Wunderground v.1.15,2013-09-08 15:54:00,
2013-09-08 11:59:00,87.8,75.0,29.94,NE,51,0.0,2.0,66,0.00,,,0.00,Wunderground v.1.15,2013-09-08 15:59:00,
2013-09-08 12:04:00,87.8,75.5,29.93,NW,308,0.0,0.0,67,0.00,,,0.00,Wunderground v.1.15,2013-09-08 16:04:00,
2013-09-08 12:09:00,87.6,76.6,29.93,WNW,300,1.0,1.0,70,0.00,,,0.00,Wunderground v.1.15,2013-09-08 16:09:00,
2013-09-08 12:14:00,86.8,77.1,29.93,NW,314,4.0,5.0,73,0.00,,,0.00,Wunderground v.1.15,2013-09-08 16:14:00,
2013-09-08 12:19:00,84.9,76.1,29.93,WNW,301,5.0,9.0,75,0.00,,,0.01,Wunderground v.1.15,2013-09-08 16:19:00,
2013-09-08 12:24:00,83.1,75.9,29.93,West,264,0.0,3.0,79,0.00,,,0.01,Wunderground v.1.15,2013-09-08 16:24:00,
2013-09-08 12:29:00,82.7,75.5,29.93,West,269,0.0,3.0,79,0.00,,,0.01,Wunderground v.1.15,2013-09-08 16:29:00,
2013-09-08 12:34:00,82.7,75.9,29.93,West,267,0.0,0.0,80,0.00,,,0.01,Wunderground v.1.15,2013-09-08 16:34:00,
2013-09-08 12:39:00,83.1,76.7,29.93,WSW,250,0.0,2.0,81,0.00,,,0.01,Wunderground v.1.15,2013-09-08 16:39:00,
2013-09-08 12:44:00,83.4,75.4,29.93,West,259,0.0,0.0,77,0.00,,,0.01,Wunderground v.1.15,2013-09-08 16:44:00,
2013-09-08 12:49:00,84.1,76.1,29.93,West,262,0.0,2.0,77,0.00,,,0.01,Wunderground v.1.15,2013-09-08 16:49:00,
2013-09-08 12:54:00,85.2,76.4,29.93,ENE,77,0.0,1.0,75,0.00,,,0.01,Wunderground v.1.15,2013-09-08 16:54:00,
2013-09-08 12:59:00,86.4,75.5,29.93,SSW,204,1.0,3.0,70,0.00,,,0.01,Wunderground v.1.15,2013-09-08 16:59:00,
2013-09-08 13:04:00,87.1,77.0,29.92,WSW,251,0.0,2.0,72,0.00,,,0.01,Wunderground v.1.15,2013-09-08 17:04:00,
2013-09-08 13:09:00,88.1,76.2,29.93,West,259,1.0,7.0,68,0.00,,,0.01,Wunderground v.1.15,2013-09-08 17:09:00,
2013-09-08 13:14:00,88.1,75.3,29.93,ESE,122,0.0,7.0,66,0.00,,,0.01,Wunderground v.1.15,2013-09-08 17:14:00,
2013-09-08 13:19:00,87.7,74.9,29.93,South,174,3.0,8.0,66,0.00,,,0.01,Wunderground v.1.15,2013-09-08 17:19:00,
2013-09-08 13:24:00,87.0,75.2,29.93,East,89,10.0,10.0,68,0.00,,,0.01,Wunderground v.1.15,2013-09-08 17:24:00,
2013-09-08 13:29:00,83.6,73.6,29.93,East,90,5.0,14.0,72,0.00,,,0.01,Wunderground v.1.15,2013-09-08 17:29:00,
2013-09-08 13:34:00,82.4,73.3,29.93,NE,56,3.0,10.0,74,0.00,,,0.01,Wunderground v.1.15,2013-09-08 17:34:00,
2013-09-08 13:39:00,80.7,71.6,29.93,ENE,68,0.0,10.0,74,0.00,,,0.01,Wunderground v.1.15,2013-09-08 17:39:00,
2013-09-08 13:44:00,79.4,72.3,29.92,ENE,74,3.0,7.0,79,2.31,,,0.13,Wunderground v.1.15,2013-09-08 17:44:00,
2013-09-08 13:49:00,78.1,72.9,29.92,ENE,77,2.0,7.0,84,0.74,,,0.24,Wunderground v.1.15,2013-09-08 17:49:00,
2013-09-08 13:54:00,78.1,74.6,29.91,North,1,2.0,5.0,89,0.63,,,0.31,Wunderground v.1.15,2013-09-08 17:54:00,
2013-09-08 13:59:00,78.3,75.1,29.91,ENE,62,0.0,5.0,90,0.32,,,0.36,Wunderground v.1.15,2013-09-08 17:59:00,
2013-09-08 14:04:00,78.3,75.1,29.90,ENE,66,0.0,3.0,90,0.29,,,0.38,Wunderground v.1.15,2013-09-08 18:04:00,
2013-09-08 14:09:00,78.5,75.7,29.90,East,80,0.0,3.0,91,0.11,,,0.38,Wunderground v.1.15,2013-09-08 18:09:00,
2013-09-08 14:14:00,79.6,76.7,29.90,East,98,0.0,1.0,91,0.06,,,0.38,Wunderground v.1.15,2013-09-08 18:14:00,
2013-09-08 14:19:00,80.4,77.5,29.90,ENE,71,0.0,2.0,91,0.04,,,0.38,Wunderground v.1.15,2013-09-08 18:19:00,
2013-09-08 14:24:00,81.5,78.3,29.91,NE,39,1.0,5.0,90,0.00,,,0.38,Wunderground v.1.15,2013-09-08 18:24:00,
2013-09-08 14:29:00,82.3,78.4,29.91,NE,40,1.0,5.0,88,0.00,,,0.38,Wunderground v.1.15,2013-09-08 18:29:00,
2013-09-08 14:34:00,82.9,79.0,29.91,NE,50,0.0,2.0,88,0.00,,,0.38,Wunderground v.1.15,2013-09-08 18:34:00,
2013-09-08 14:39:00,83.0,78.4,29.90,East,84,0.0,2.0,86,0.00,,,0.38,Wunderground v.1.15,2013-09-08 18:39:00,
2013-09-08 14:44:00,83.4,78.8,29.90,East,81,0.0,1.0,86,0.00,,,0.38,Wunderground v.1.15,2013-09-08 18:44:00,
2013-09-08 14:49:00,83.5,78.5,29.90,East,80,2.0,3.0,85,0.00,,,0.38,Wunderground v.1.15,2013-09-08 18:49:00,
2013-09-08 14:54:00,83.6,78.6,29.89,ESE,106,0.0,4.0,85,0.00,,,0.38,Wunderground v.1.15,2013-09-08 18:54:00,
2013-09-08 14:59:00,83.6,78.2,29.89,ENE,63,2.0,4.0,84,0.00,,,0.38,Wunderground v.1.15,2013-09-08 18:59:00,
2013-09-08 15:04:00,83.5,77.4,29.90,East,82,0.0,4.0,82,0.00,,,0.38,Wunderground v.1.15,2013-09-08 19:04:00,
2013-09-08 15:09:00,83.5,77.4,29.90,NE,51,2.0,4.0,82,0.00,,,0.38,Wunderground v.1.15,2013-09-08 19:09:00,
2013-09-08 15:14:00,83.4,77.7,29.90,North,8,0.0,2.0,83,0.00,,,0.38,Wunderground v.1.15,2013-09-08 19:14:00,
2013-09-08 15:19:00,83.1,77.8,29.89,NNE,32,2.0,5.0,84,0.00,,,0.38,Wunderground v.1.15,2013-09-08 19:19:00,
2013-09-08 15:24:00,83.6,78.2,29.89,NE,53,3.0,6.0,84,0.00,,,0.38,Wunderground v.1.15,2013-09-08 19:24:00,
2013-09-08 15:29:00,84.5,79.1,29.89,NNE,19,0.0,6.0,84,0.00,,,0.38,Wunderground v.1.15,2013-09-08 19:29:00,
2013-09-08 15:34:00,85.3,78.8,29.89,NNE,24,2.0,5.0,81,0.00,,,0.38,Wunderground v.1.15,2013-09-08 19:34:00,
2013-09-08 15:39:00,86.0,78.7,29.89,East,83,0.0,6.0,79,0.00,,,0.38,Wunderground v.1.15,2013-09-08 19:39:00,
2013-09-08 15:44:00,86.7,78.6,29.88,NNE,19,3.0,6.0,77,0.00,,,0.38,Wunderground v.1.15,2013-09-08 19:44:00,
2013-09-08 15:49:00,86.6,78.5,29.87,ENE,75,2.0,6.0,77,0.00,,,0.38,Wunderground v.1.15,2013-09-08 19:49:00,
2013-09-08 15:54:00,86.7,78.6,29.88,ENE,60,0.0,5.0,77,0.00,,,0.38,Wunderground v.1.15,2013-09-08 19:54:00,
2013-09-08 15:59:00,87.2,78.7,29.88,ENE,61,0.0,5.0,76,0.00,,,0.38,Wunderground v.1.15,2013-09-08 19:59:00,
2013-09-08 16:04:00,87.3,78.8,29.88,NNE,32,1.0,4.0,76,0.00,,,0.38,Wunderground v.1.15,2013-09-08 20:04:00,
2013-09-08 16:09:00,87.4,76.0,29.88,ENE,62,3.0,4.0,69,0.00,,,0.38,Wunderground v.1.15,2013-09-08 20:09:00,
2013-09-08 16:14:00,87.4,76.0,29.89,East,100,0.0,5.0,69,0.00,,,0.38,Wunderground v.1.15,2013-09-08 20:14:00,
2013-09-08 16:19:00,87.2,75.8,29.89,NE,44,3.0,5.0,69,0.00,,,0.38,Wunderground v.1.15,2013-09-08 20:19:00,
2013-09-08 16:24:00,86.9,75.5,29.89,ESE,108,0.0,5.0,69,0.00,,,0.38,Wunderground v.1.15,2013-09-08 20:24:00,
2013-09-08 16:29:00,87.0,76.0,29.89,ESE,104,1.0,6.0,70,0.00,,,0.38,Wunderground v.1.15,2013-09-08 20:29:00,
2013-09-08 16:34:00,86.8,75.8,29.89,East,91,0.0,6.0,70,0.00,,,0.38,Wunderground v.1.15,2013-09-08 20:34:00,
2013-09-08 16:39:00,86.4,75.5,29.89,ESE,114,0.0,6.0,70,0.00,,,0.38,Wunderground v.1.15,2013-09-08 20:39:00,
2013-09-08 16:44:00,86.0,75.5,29.88,ENE,77,1.0,3.0,71,0.00,,,0.38,Wunderground v.1.15,2013-09-08 20:44:00,
2013-09-08 16:49:00,85.6,75.9,29.88,North,1,1.0,4.0,73,0.00,,,0.38,Wunderground v.1.15,2013-09-08 20:49:00,
2013-09-08 16:54:00,85.0,76.2,29.88,NNE,31,1.0,4.0,75,0.00,,,0.38,Wunderground v.1.15,2013-09-08 20:54:00,
2013-09-08 16:59:00,84.2,76.2,29.88,NNE,30,2.0,5.0,77,0.00,,,0.38,Wunderground v.1.15,2013-09-08 20:59:00,
2013-09-08 17:04:00,83.4,76.2,29.89,NW,314,0.0,5.0,79,0.00,,,0.38,Wunderground v.1.15,2013-09-08 21:04:00,
2013-09-08 17:09:00,82.2,76.5,29.88,NNE,13,3.0,5.0,83,0.00,,,0.38,Wunderground v.1.15,2013-09-08 21:09:00,
2013-09-08 17:14:00,81.3,76.0,29.88,NE,44,0.0,5.0,84,0.00,,,0.38,Wunderground v.1.15,2013-09-08 21:14:00,
2013-09-08 17:19:00,80.7,75.4,29.88,NE,43,1.0,5.0,84,0.00,,,0.38,Wunderground v.1.15,2013-09-08 21:19:00,
2013-09-08 17:24:00,80.1,74.1,29.88,NE,39,0.0,4.0,82,0.00,,,0.38,Wunderground v.1.15,2013-09-08 21:24:00,
2013-09-08 17:29:00,79.8,73.8,29.88,NNE,16,0.0,5.0,82,0.00,,,0.38,Wunderground v.1.15,2013-09-08 21:29:00,
2013-09-08 17:34:00,79.6,73.6,29.89,ENE,75,0.0,2.0,82,0.00,,,0.38,Wunderground v.1.15,2013-09-08 21:34:00,
2013-09-08 17:39:00,79.6,73.6,29.89,NE,40,0.0,2.0,82,0.00,,,0.38,Wunderground v.1.15,2013-09-08 21:39:00,
2013-09-08 17:44:00,79.3,73.3,29.89,NE,35,1.0,2.0,82,0.00,,,0.38,Wunderground v.1.15,2013-09-08 21:44:00,
2013-09-08 17:49:00,79.1,73.1,29.89,NE,51,1.0,2.0,82,0.00,,,0.38,Wunderground v.1.15,2013-09-08 21:49:00,
2013-09-08 17:54:00,78.9,73.3,29.89,NNE,27,0.0,2.0,83,0.00,,,0.38,Wunderground v.1.15,2013-09-08 21:54:00,
2013-09-08 17:59:00,78.8,73.2,29.89,NE,47,0.0,2.0,83,0.00,,,0.38,Wunderground v.1.15,2013-09-08 21:59:00,
2013-09-08 18:04:00,78.8,73.6,29.89,East,90,0.0,1.0,84,0.00,,,0.38,Wunderground v.1.15,2013-09-08 22:04:00,
2013-09-08 18:09:00,79.1,74.2,29.89,East,98,0.0,1.0,85,0.00,,,0.38,Wunderground v.1.15,2013-09-08 22:09:00,
2013-09-08 18:14:00,79.2,74.3,29.89,East,98,0.0,0.0,85,0.00,,,0.38,Wunderground v.1.15,2013-09-08 22:14:00,
2013-09-08 18:19:00,79.4,74.8,29.89,NE,47,0.0,1.0,86,0.00,,,0.38,Wunderground v.1.15,2013-09-08 22:19:00,
2013-09-08 18:24:00,79.6,75.0,29.89,NNE,31,0.0,1.0,86,0.00,,,0.38,Wunderground v.1.15,2013-09-08 22:24:00,
2013-09-08 18:29:00,79.6,74.7,29.89,ENE,63,0.0,4.0,85,0.00,,,0.38,Wunderground v.1.15,2013-09-08 22:29:00,
2013-09-08 18:34:00,79.7,75.1,29.89,East,82,0.0,4.0,86,0.00,,,0.38,Wunderground v.1.15,2013-09-08 22:34:00,
2013-09-08 18:39:00,79.8,75.6,29.88,NNE,24,0.0,4.0,87,0.00,,,0.38,Wunderground v.1.15,2013-09-08 22:39:00,
2013-09-08 18:45:00,79.9,76.0,29.89,East,82,1.0,3.0,88,0.00,,,0.38,Wunderground v.1.15,2013-09-08 22:45:00,
2013-09-08 18:50:00,79.9,76.0,29.89,East,86,0.0,0.0,88,0.00,,,0.38,Wunderground v.1.15,2013-09-08 22:50:00,
2013-09-08 18:55:00,79.9,76.4,29.89,NE,49,0.0,2.0,89,0.00,,,0.38,Wunderground v.1.15,2013-09-08 22:55:00,
2013-09-08 19:00:00,79.9,76.4,29.89,NNE,16,0.0,0.0,89,0.00,,,0.38,Wunderground v.1.15,2013-09-08 23:00:00,
2013-09-08 19:05:00,79.9,76.4,29.90,North,6,0.0,0.0,89,0.00,,,0.38,Wunderground v.1.15,2013-09-08 23:05:00,
2013-09-08 19:10:00,79.7,76.2,29.90,North,6,0.0,0.0,89,0.00,,,0.38,Wunderground v.1.15,2013-09-08 23:10:00,
2013-09-08 19:15:00,79.6,76.1,29.90,North,6,0.0,0.0,89,0.00,,,0.38,Wunderground v.1.15,2013-09-08 23:15:00,
2013-09-08 19:20:00,79.6,76.4,29.90,North,6,0.0,0.0,90,0.00,,,0.38,Wunderground v.1.15,2013-09-08 23:20:00,
2013-09-08 19:25:00,79.5,76.3,29.90,North,6,0.0,0.0,90,0.00,,,0.38,Wunderground v.1.15,2013-09-08 23:25:00,
2013-09-08 19:30:00,79.4,76.2,29.90,North,6,0.0,0.0,90,0.00,,,0.38,Wunderground v.1.15,2013-09-08 23:30:00,
2013-09-08 19:35:00,79.4,76.2,29.91,North,4,0.0,0.0,90,0.00,,,0.38,Wunderground v.1.15,2013-09-08 23:35:00,
2013-09-08 19:40:00,79.3,76.4,29.90,North,5,0.0,0.0,91,0.00,,,0.38,Wunderground v.1.15,2013-09-08 23:40:00,
2013-09-08 19:45:00,79.2,76.3,29.91,North,5,0.0,0.0,91,0.00,,,0.38,Wunderground v.1.15,2013-09-08 23:45:00,
2013-09-08 19:50:00,79.1,76.2,29.91,North,5,0.0,0.0,91,0.00,,,0.38,Wunderground v.1.15,2013-09-08 23:50:00,
2013-09-08 19:55:00,79.1,76.2,29.91,North,6,0.0,0.0,91,0.00,,,0.38,Wunderground v.1.15,2013-09-08 23:55:00,
2013-09-08 20:00:00,79.1,76.2,29.91,North,6,0.0,0.0,91,0.00,,,0.38,Wunderground v.1.15,2013-09-09 00:00:00,
2013-09-08 20:05:00,79.2,76.7,29.91,North,6,0.0,0.0,92,0.00,,,0.38,Wunderground v.1.15,2013-09-09 00:05:00,
2013-09-08 20:10:00,79.2,76.7,29.92,North,5,0.0,0.0,92,0.00,,,0.38,Wunderground v.1.15,2013-09-09 00:10:00,
2013-09-08 20:16:00,79.4,76.9,29.92,North,5,0.0,0.0,92,0.00,,,0.38,Wunderground v.1.15,2013-09-09 00:16:00,
2013-09-08 20:21:00,79.4,76.9,29.92,North,4,0.0,0.0,92,0.00,,,0.38,Wunderground v.1.15,2013-09-09 00:21:00,
2013-09-08 20:26:00,79.4,76.9,29.92,North,6,0.0,0.0,92,0.00,,,0.38,Wunderground v.1.15,2013-09-09 00:26:00,
2013-09-08 20:31:00,79.4,76.9,29.92,North,6,0.0,0.0,92,0.00,,,0.38,Wunderground v.1.15,2013-09-09 00:31:00,
2013-09-08 20:36:00,79.4,76.9,29.92,North,6,0.0,0.0,92,0.00,,,0.38,Wunderground v.1.15,2013-09-09 00:36:00,
2013-09-08 20:41:00,79.6,77.1,29.93,SW,232,0.0,0.0,92,0.00,,,0.38,Wunderground v.1.15,2013-09-09 00:41:00,
2013-09-08 20:46:00,79.9,77.4,29.93,SW,224,0.0,1.0,92,0.00,,,0.38,Wunderground v.1.15,2013-09-09 00:46:00,
2013-09-08 20:51:00,79.9,77.0,29.93,SW,224,0.0,0.0,91,0.00,,,0.38,Wunderground v.1.15,2013-09-09 00:51:00,
2013-09-08 20:56:00,79.9,77.0,29.93,SW,224,0.0,0.0,91,0.00,,,0.38,Wunderground v.1.15,2013-09-09 00:56:00,
2013-09-08 21:01:00,79.9,77.0,29.94,SW,224,0.0,0.0,91,0.00,,,0.38,Wunderground v.1.15,2013-09-09 01:01:00,
2013-09-08 21:06:00,79.9,77.0,29.94,NE,53,0.0,1.0,91,0.00,,,0.38,Wunderground v.1.15,2013-09-09 01:06:00,
2013-09-08 21:11:00,79.9,77.0,29.94,NE,54,0.0,0.0,91,0.00,,,0.38,Wunderground v.1.15,2013-09-09 01:11:00,
2013-09-08 21:16:00,79.8,76.9,29.95,NE,53,0.0,0.0,91,0.00,,,0.38,Wunderground v.1.15,2013-09-09 01:16:00,
2013-09-08 21:21:00,79.8,77.3,29.95,NE,54,0.0,0.0,92,0.00,,,0.38,Wunderground v.1.15,2013-09-09 01:21:00,
2013-09-08 21:26:00,79.7,77.2,29.95,NE,53,0.0,0.0,92,0.00,,,0.38,Wunderground v.1.15,2013-09-09 01:26:00,
2013-09-08 21:31:00,79.7,77.2,29.95,NE,54,0.0,0.0,92,0.00,,,0.38,Wunderground v.1.15,2013-09-09 01:31:00,
2013-09-08 21:36:00,79.6,77.1,29.95,NE,56,0.0,1.0,92,0.00,,,0.38,Wunderground v.1.15,2013-09-09 01:36:00,
2013-09-08 21:41:00,79.6,77.1,29.95,NE,55,0.0,0.0,92,0.00,,,0.38,Wunderground v.1.15,2013-09-09 01:41:00,
2013-09-08 21:46:00,79.6,77.1,29.95,ENE,57,0.0,0.0,92,0.00,,,0.38,Wunderground v.1.15,2013-09-09 01:46:00,
2013-09-08 21:51:00,79.5,77.0,29.95,ENE,57,0.0,0.0,92,0.00,,,0.38,Wunderground v.1.15,2013-09-09 01:51:00,
2013-09-08 21:56:00,79.5,77.0,29.95,ENE,60,0.0,0.0,92,0.00,,,0.38,Wunderground v.1.15,2013-09-09 01:56:00,
2013-09-08 22:01:00,79.4,76.9,29.95,ENE,59,0.0,0.0,92,0.00,,,0.38,Wunderground v.1.15,2013-09-09 02:01:00,
2013-09-08 22:06:00,79.3,76.8,29.95,ENE,60,0.0,0.0,92,0.00,,,0.38,Wunderground v.1.15,2013-09-09 02:06:00,
2013-09-08 22:11:00,79.4,76.9,29.96,ENE,60,0.0,0.0,92,0.00,,,0.38,Wunderground v.1.15,2013-09-09 02:11:00,
2013-09-08 22:16:00,79.5,77.0,29.96,ENE,60,0.0,0.0,92,0.00,,,0.38,Wunderground v.1.15,2013-09-09 02:16:00,
2013-09-08 22:21:00,79.5,77.0,29.96,ENE,60,0.0,0.0,92,0.00,,,0.38,Wunderground v.1.15,2013-09-09 02:21:00,
2013-09-08 22:26:00,79.5,77.0,29.96,ENE,59,0.0,0.0,92,0.00,,,0.38,Wunderground v.1.15,2013-09-09 02:26:00,
2013-09-08 22:31:00,79.5,77.0,29.96,ENE,60,0.0,0.0,92,0.00,,,0.38,Wunderground v.1.15,2013-09-09 02:31:00,
2013-09-08 22:36:00,79.4,76.9,29.96,ENE,60,0.0,0.0,92,0.00,,,0.38,Wunderground v.1.15,2013-09-09 02:36:00,
2013-09-08 22:42:00,79.3,76.8,29.96,ENE,60,0.0,0.0,92,0.00,,,0.38,Wunderground v.1.15,2013-09-09 02:42:00,
2013-09-08 22:47:00,79.2,76.7,29.97,ENE,60,0.0,0.0,92,0.00,,,0.38,Wunderground v.1.15,2013-09-09 02:47:00,
2013-09-08 22:52:00,79.2,77.0,29.96,ENE,60,0.0,0.0,93,0.00,,,0.38,Wunderground v.1.15,2013-09-09 02:52:00,
2013-09-08 22:57:00,79.1,76.9,29.96,ENE,60,0.0,0.0,93,0.00,,,0.38,Wunderground v.1.15,2013-09-09 02:57:00,
2013-09-08 23:02:00,79.1,76.9,29.96,ENE,60,0.0,0.0,93,0.00,,,0.38,Wunderground v.1.15,2013-09-09 03:02:00,
2013-09-08 23:07:00,79.1,76.9,29.96,ENE,59,0.0,1.0,93,0.00,,,0.38,Wunderground v.1.15,2013-09-09 03:07:00,
2013-09-08 23:12:00,79.0,76.8,29.96,ENE,59,0.0,0.0,93,0.00,,,0.38,Wunderground v.1.15,2013-09-09 03:12:00,
2013-09-08 23:17:00,78.9,76.7,29.97,ENE,60,0.0,0.0,93,0.00,,,0.38,Wunderground v.1.15,2013-09-09 03:17:00,
2013-09-08 23:22:00,79.0,76.8,29.97,ENE,60,0.0,0.0,93,0.00,,,0.38,Wunderground v.1.15,2013-09-09 03:22:00,
2013-09-08 23:27:00,79.0,77.1,29.97,ENE,60,0.0,0.0,94,0.00,,,0.38,Wunderground v.1.15,2013-09-09 03:27:00,
2013-09-08 23:33:00,78.8,76.6,29.96,ENE,60,0.0,0.0,93,0.00,,,0.38,Wunderground v.1.15,2013-09-09 03:33:00,
2013-09-08 23:38:00,78.7,76.5,29.97,ENE,59,0.0,0.0,93,0.00,,,0.38,Wunderground v.1.15,2013-09-09 03:38:00,
2013-09-08 23:43:00,78.6,76.4,29.97,ENE,60,0.0,0.0,93,0.00,,,0.38,Wunderground v.1.15,2013-09-09 03:43:00,
2013-09-08 23:48:00,78.5,76.6,29.97,ENE,60,0.0,0.0,94,0.00,,,0.38,Wunderground v.1.15,2013-09-09 03:48:00,
2013-09-08 23:54:00,78.4,76.5,29.97,ENE,60,0.0,0.0,94,0.00,,,0.38,Wunderground v.1.15,2013-09-09 03:54:00,
2013-09-08 23:59:00,78.3,76.4,29.97,ENE,60,0.0,0.0,94,0.00,,,0.38,Wunderground v.1.15,2013-09-09 03:59:00,